Погода в Хитрове

Россия / Тамбовская область     52°27′56″N   41°53′24″E
темп.,
°C
ветер,
м/с
пор.,
м/с
влажн.,
%
обл.,
%
осадки,
мм/ч
давл.,
гПа
погр.,
м
14 апреля, ср
ср1400:00+11юв4126247 0.0 1025184
03:00+9вюв4116786 0.0 1024162
06:00+8вюв4966100 0.0 1024146
09:00+13вюв61046100 0.0 1023353
12:00+18юв683299 0.0 1021987
15:00+19юв6728100 0.0 10201580
18:00+16вюв5941100 0.0 1019247
21:00+12вюв4754100 0.0 101992
15 апреля, чт
чт1500:00+10вюв4763100 0.0 1018106
03:00+9вюв476818 0.0 1018103
06:00+8вюв497283 0.0 1017137
09:00+14вюв5952100 0.0 1016369
12:00+18юв56385 0.0 1016900
15:00+20ююв45308 0.0 10151728
18:00+18ююв2341100 0.0 101538
21:00+13з346199 0.0 101657
16 апреля, пт
пт1600:00+11ссз347493 0.1 101661
03:00+10ссз2279100 0.1 101629
06:00+10всв1175100 0.0 101613
09:00+13ююв1361100 0.0 1017350
12:00+17вюв1347100 0.0 1018848
15:00+19вюв3437100 0.0 10171875
18:00+17в474351 0.0 1017187
21:00+13в375854 0.0 1018112
17 апреля, сб
сб1700:00+11в5117235 0.0 1018225
03:00+10всв51286100 0.0 1019285
06:00+9всв613875 0.0 1019306
09:00+13в71266100 0.0 1019529
12:00+18в8104241 0.0 10191883
15:00+18в6942100 0.0 10181459
18:00+11юз557799 0.7 1020285
21:00+9юз2389100 2.3 1022240
18 апреля, вс
вс1800:00+9всв2392100 2.4 1022227
03:00+9св3589100 2.6 1022368
06:00+6всв61080100 0.5 1023382
09:00+8в6961100 1.2 1023535
12:00+12в6847100 0.0 10241180
15:00+13в5743100 0.0 10241686
18:00+10юв3767100 0.3 1024545
21:00+9ссв1465100 0.4 102499